Regional Weather Roundup
Issued by NWS

Home | Current Version | Previous Version | Text Only | Print | Product List | Glossary Off
Versions: 1 2 3 4 5 6 7 8 9 10 11 12 13 14 15 16 17 18 19 20 21 22 23 24 25 26 27 28 29 30 31 32 33 34 35 36 37 38 39 40 41 42 43 44 45 46 47 48 49 50

000
ASUS43 KBIS 280210
RWRND

NORTH DAKOTA REGIONAL WEATHER ROUNDUP
NATIONAL WEATHER SERVICE BISMARCK ND
900 PM CDT SUN MAY 27 2018

NOTE: "FAIR" INDICATES FEW OR NO CLOUDS BELOW 12,000 FEET WITH NO
SIGNIFICANT WEATHER AND/OR OBSTRUCTIONS TO VISIBILITY.


NDZ001>003-009>011-017-280300-
NORTHWEST NORTH DAKOTA

CITY           SKY/WX    TMP DP  RH WIND       PRES   REMARKS
WILLISTON      MOCLDY    77  54  44 N12       29.94S
MINOT          CLEAR     78  57  48 N8        29.90R
MINOT AFB      CLEAR     78  58  49 N9        29.89R
$$

NDZ018>021-031>035-040>046-280300-
SOUTHWEST NORTH DAKOTA

CITY           SKY/WX    TMP DP  RH WIND       PRES   REMARKS
BISMARCK       CLEAR     76  61  59 NE8       29.88R
DICKINSON      PTCLDY    74  56  53 N12       29.92S
GARRISON         N/A     76  58  53 NE9       29.89S
HETTINGER ARPT MOCLDY    73  56  54 N14       29.92R
$$

NDZ004>008-012>016-024-026-027-054-280300-
NORTHEAST NORTH DAKOTA

CITY           SKY/WX    TMP DP  RH WIND       PRES   REMARKS
GRAND FORKS    FAIR      73  62  68 N5        29.83R
GRND FRKS AFB  FAIR      73  61  65 NE6       29.84R
DEVILS LAKE    FAIR      77  57  50 N10       29.89R
$$

NDZ022-023-025-028>030-036>039-047>053-280300-
SOUTHEAST NORTH DAKOTA

CITY           SKY/WX    TMP DP  RH WIND       PRES   REMARKS
FARGO          CLOUDY    77  64  64 NE13      29.79R
JAMESTOWN      PTCLDY    73  65  75 NE8       29.84R
$$




USA.gov is the U.S. government's official web portal to all federal, state and local government web resources and services.